星链-4453 (STARLINK-4453 )

导读 | 星芒AI

STARLINK-4453 是 SpaceX Starlink 项目中的一颗低轨通信卫星,属于该星座的众多卫星之一,旨在为全球提供高速互联网服务。该卫星运行在约 550 公里的轨道高度,采用先进的相控阵天线和激光通信技术,以提升网络效率和覆盖范围。作为 Starlink 计划的一部分,STARLINK-4453 有助于增强偏远地区的网络连接,并支持多种应用场景,包括航空、航海和地面通信。其发射和运行体现了 SpaceX 在推动全球宽带普及方面的持续努力。

基本信息
目录编号:
53497
目录名称:
STARLINK-4453
国际标识:
2022-099AJ
轨道中心:
EARTH
卫星名称:
星链-4453
卫星全名:
星链-4453 (STARLINK-4453 )
卫星状态:
在轨 (已飞行1181 天)
发射日期:
2022-08-12 UTC
国别 :
美国 (US)
星等 :
--
轨道信息
数据来源 国际轨道数据
星历时间: 2025-11-04T21:42:30+0800
14小时前
查看轨道信息
半长轴: 6941.148km
偏心率: 0.000253
轨道倾角: 97.602°
近地点辐角 214.544°
升交点赤经 67.712°
平近点角 145.562°
近地点: 561.256km
远地点: 564.77km
周期: 95.919分钟
每日圈数: 15.012598
详细信息
固有亮度:
5
最大亮度:
2.5
卫星平台:
Starlink v1.5
覆盖范围:
全球
运营商:
太空探索技术公司
运营商所在国:
美国
制造商(研发单位):
太空探索技术公司
制造商所在国:
美国
使用方式:
暂无
卫星简介
星链(Starlink)计划是由太空探索技术公司(SpaceX)提出的一个巨型低轨卫星互联网星座项目,计划在2019年至2024年间在太空搭建由约1.2万颗卫星组成的“星链”网络,其中1584颗将部署在地球上空550千米处的近地轨道,并从2020年开始工作。该卫星仍在工作。
2D轨道图
3D轨道图
轨道高度分析图
轨道倾角分析图
轨道综合分析图
查看轨道综合分析图